Simultaneous Nadir Overpasses (SNOs) Predictions

Prediction of SNOs near equator between AQUA and NPP Satellite Orbit:

Table of predicted SNOs near equator for the next 14.0 days since TLE Epoch: 8/28/2016
Index Date (AQUA) Time (AQUA) AQUA Lat,Lon Date (NPP) Time (NPP) NPP Lat,Lon Distance(km) Time Diff (sec)
1 08/30/2016 15:37:09 -10.52, 147.97 08/30/2016 15:27:23 -10.53, 147.97 0.47 586
2 08/30/2016 16:24:01 0.94, -42.35 08/30/2016 16:15:28 0.89, -42.56 24.13 513
3 08/30/2016 17:12:08 3.61, 126.27 08/30/2016 17:04:51 3.69, 125.79 54.05 437
4 08/30/2016 18:00:23 -8.19, -65.13 08/30/2016 17:54:21 -8.33, -65.87 82.99 362
5 09/02/2016 07:51:52 -4.10, -94.77 09/02/2016 07:42:27 -4.10, -94.80 3.32 565
6 09/02/2016 08:40:08 -0.40, 73.81 09/02/2016 08:31:58 -0.49, 73.52 33.39 490
7 09/02/2016 09:28:14 5.02,-117.55 09/02/2016 09:21:20 5.12,-118.11 62.93 414
8 09/02/2016 10:16:30 -9.53, 51.04 09/02/2016 10:10:51 -9.71, 50.22 91.68 339
9 09/04/2016 23:26:07 29.95,-152.48 09/04/2016 23:16:07 30.35,-152.72 50.11 600
10 09/05/2016 00:07:58 -2.71, 21.41 09/04/2016 23:58:56 -2.66, 21.30 12.59 542
11 09/05/2016 00:56:13 -1.86,-170.00 09/05/2016 00:48:27 -1.92,-170.38 42.46 466
12 09/05/2016 01:44:20 6.42, -1.37 09/05/2016 01:37:49 6.56, -2.01 71.80 391
13 09/07/2016 15:37:37 11.99, -32.37 09/07/2016 15:27:46 11.98, -32.36 0.62 591
14 09/07/2016 16:24:02 -1.25, 137.59 09/07/2016 16:15:24 -1.24, 137.40 21.77 518
15 09/07/2016 17:12:18 -3.25, -53.83 09/07/2016 17:04:55 -3.35, -54.28 51.54 443
16 09/07/2016 18:00:26 7.75, 114.79 09/07/2016 17:54:18 7.93, 114.08 80.77 368
17 09/10/2016 07:52:02 4.50, 85.12 09/10/2016 07:42:32 4.50, 85.11 1.21 570
18 09/10/2016 08:40:08 0.13,-106.24 09/10/2016 08:31:53 0.19,-106.51 30.87 495
19 09/10/2016 09:28:22 -4.75, 62.37 09/10/2016 09:21:23 -4.83, 61.83 60.66 419
20 09/10/2016 10:16:30 9.26,-129.01 09/10/2016 10:10:46 9.41,-129.81 89.42 344




NCC Satellite Simultaneous Nadir Overpasses (SNOs) Prediction Service
